| time (UTC) | temp F | wind direction | speed MPH | gust MPH | rain 1hr in | rain 24hr in | rain mn in | humidity % | barometer mb |
| 20260506091104 | 57 | 208 | 6.0 | 13.0 | 0.00 | 0.00 | 0.00 | 84 | 1009.1 |
| 20260506090604 | 57 | 207 | 10.0 | 20.0 | 0.00 | 0.00 | 0.00 | 84 | 1009.1 |
| 20260506090104 | 57 | 216 | 7.0 | 17.0 | 0.00 | 0.00 | 0.00 | 84 | 1009.1 |
| 20260506085604 | 57 | 205 | 6.0 | 14.0 | 0.00 | 0.00 | 0.00 | 84 | 1009.2 |
| 20260506085104 | 57 | 213 | 7.0 | 14.0 | 0.00 | 0.00 | 0.00 | 84 | 1009.2 |
| 20260506084603 | 57 | 216 | 6.0 | 14.0 | 0.00 | 0.00 | 0.00 | 84 | 1009.2 |
| 20260506084104 | 57 | 222 | 6.0 | 18.0 | 0.00 | 0.00 | 0.00 | 84 | 1009.2 |
| 20260506083603 | 57 | 214 | 9.0 | 22.0 | 0.00 | 0.00 | 0.00 | 84 | 1009.4 |
| 20260506083103 | 57 | 207 | 6.0 | 16.0 | 0.00 | 0.00 | 0.00 | 84 | 1009.4 |
| 20260506082104 | 57 | 203 | 6.0 | 12.0 | 0.00 | 0.00 | 0.00 | 83 | 1009.3 |
| 20260506081604 | 57 | 208 | 7.0 | 13.0 | 0.00 | 0.00 | 0.00 | 83 | 1009.4 |
| 20260506081103 | 58 | 205 | 7.0 | 16.0 | 0.00 | 0.00 | 0.00 | 83 | 1009.4 |
| 20260506080604 | 58 | 208 | 8.0 | 20.0 | 0.00 | 0.00 | 0.00 | 83 | 1009.3 |
| 20260506080104 | 58 | 213 | 7.0 | 20.0 | 0.00 | 0.00 | 0.00 | 83 | 1009.3 |
| 20260506073103 | 58 | 208 | 7.0 | 13.0 | 0.00 | 0.00 | 0.00 | 82 | 1009.6 |
| 20260506072103 | 58 | 217 | 7.0 | 13.0 | 0.00 | 0.00 | 0.00 | 82 | 1009.6 |
| 20260506071604 | 58 | 214 | 7.0 | 18.0 | 0.00 | 0.00 | 0.00 | 82 | 1009.6 |
| 20260506071104 | 58 | 210 | 8.0 | 21.0 | 0.00 | 0.00 | 0.00 | 82 | 1009.6 |
| 20260506070603 | 58 | 204 | 7.0 | 13.0 | 0.00 | 0.00 | 0.00 | 82 | 1009.6 |
| 20260506070103 | 58 | 207 | 7.0 | 14.0 | 0.00 | 0.00 | 0.00 | 82 | 1009.7 |
| 20260506062104 | 59 | 218 | 6.0 | 16.0 | 0.00 | 0.00 | 0.00 | 80 | 1009.4 |
| 20260506061603 | 59 | 208 | 8.0 | 14.0 | 0.00 | 0.00 | 0.00 | 80 | 1009.4 |
| 20260506060603 | 59 | 217 | 9.0 | 17.0 | 0.00 | 0.00 | 0.00 | 80 | 1009.4 |
| 20260506051104 | 60 | 197 | 5.0 | 17.0 | 0.00 | 0.00 | 0.00 | 78 | 1009.8 |
| 20260506050103 | 60 | 214 | 10.0 | 18.0 | 0.00 | 0.00 | 0.00 | 77 | 1009.8 |
| 20260506045104 | 60 | 210 | 7.0 | 24.0 | 0.00 | 0.00 | 0.00 | 76 | 1009.8 |
| 20260506044604 | 60 | 223 | 10.0 | 18.0 | 0.00 | 0.00 | 0.00 | 76 | 1009.8 |
| 20260506044104 | 61 | 206 | 10.0 | 21.0 | 0.00 | 0.00 | 0.00 | 76 | 1009.7 |
| 20260506043603 | 61 | 210 | 7.0 | 17.0 | 0.00 | 0.00 | 0.00 | 75 | 1009.8 |
| 20260506043104 | 61 | 210 | 7.0 | 20.0 | 0.00 | 0.00 | 0.00 | 75 | 1009.7 |
| 20260506042604 | 61 | 216 | 9.0 | 17.0 | 0.00 | 0.00 | 0.00 | 75 | 1009.7 |
| 20260506042104 | 61 | 219 | 11.0 | 18.0 | 0.00 | 0.00 | 0.00 | 75 | 1009.7 |
| 20260506041604 | 61 | 212 | 10.0 | 22.0 | 0.00 | 0.00 | 0.00 | 74 | 1009.7 |
| 20260506041105 | 62 | 216 | 9.0 | 24.0 | 0.00 | 0.00 | 0.00 | 74 | 1009.7 |
| 20260506034604 | 62 | 213 | 8.0 | 23.0 | 0.00 | 0.00 | 0.00 | 73 | 1009.8 |
| 20260506034103 | 63 | 206 | 9.0 | 21.0 | 0.00 | 0.00 | 0.00 | 73 | 1009.5 |
| 20260506033603 | 63 | 214 | 11.0 | 20.0 | 0.00 | 0.00 | 0.00 | 73 | 1009.5 |
| 20260506033103 | 63 | 219 | 10.0 | 20.0 | 0.00 | 0.00 | 0.00 | 73 | 1009.5 |
| 20260506032603 | 63 | 213 | 10.0 | 21.0 | 0.00 | 0.00 | 0.00 | 72 | 1009.6 |
| 20260506032104 | 63 | 216 | 10.0 | 22.0 | 0.00 | 0.00 | 0.00 | 72 | 1009.6 |
| 20260506031104 | 63 | 213 | 12.0 | 29.0 | 0.00 | 0.00 | 0.00 | 72 | 1009.5 |
| 20260506030604 | 63 | 205 | 12.0 | 24.0 | 0.00 | 0.00 | 0.00 | 72 | 1009.7 |
| 20260506025603 | 63 | 213 | 12.0 | 22.0 | 0.00 | 0.00 | 0.00 | 71 | 1009.7 |
| 20260506024604 | 63 | 218 | 10.0 | 21.0 | 0.00 | 0.00 | 0.00 | 70 | 1009.5 |
| 20260506024104 | 63 | 213 | 10.0 | 20.0 | 0.00 | 0.00 | 0.00 | 70 | 1009.7 |
| 20260506023604 | 63 | 212 | 10.0 | 20.0 | 0.00 | 0.00 | 0.00 | 70 | 1009.7 |
| 20260506023104 | 63 | 214 | 11.0 | 20.0 | 0.00 | 0.00 | 0.00 | 69 | 1009.7 |
| 20260506022603 | 63 | 223 | 8.0 | 22.0 | 0.00 | 0.00 | 0.00 | 69 | 1009.6 |
| 20260506022103 | 63 | 224 | 9.0 | 20.0 | 0.00 | 0.00 | 0.00 | 69 | 1009.6 |
| 20260506021604 | 63 | 225 | 6.0 | 29.0 | 0.00 | 0.00 | 0.00 | 69 | 1009.6 |
| 20260506021103 | 63 | 224 | 11.0 | 20.0 | 0.00 | 0.00 | 0.00 | 68 | 1009.7 |
| 20260506020603 | 63 | 216 | 7.0 | 20.0 | 0.00 | 0.00 | 0.00 | 68 | 1009.5 |
| 20260506020103 | 64 | 221 | 12.0 | 23.0 | 0.00 | 0.00 | 0.00 | 68 | 1009.5 |
| 20260506015603 | 64 | 208 | 11.0 | 25.0 | 0.00 | 0.00 | 0.00 | 68 | 1009.5 |
| 20260506015104 | 64 | 211 | 10.0 | 23.0 | 0.00 | 0.00 | 0.00 | 68 | 1009.5 |
| 20260506014604 | 64 | 218 | 11.0 | 32.0 | 0.00 | 0.00 | 0.00 | 68 | 1009.5 |
| 20260506014103 | 64 | 213 | 8.0 | 22.0 | 0.00 | 0.00 | 0.00 | 67 | 1009.5 |
| 20260506013603 | 64 | 211 | 10.0 | 26.0 | 0.00 | 0.00 | 0.00 | 67 | 1009.5 |
| 20260506012104 | 64 | 208 | 9.0 | 23.0 | 0.00 | 0.00 | 0.00 | 66 | 1009.5 |
| 20260506011603 | 64 | 217 | 12.0 | 23.0 | 0.00 | 0.00 | 0.00 | 66 | 1009.3 |
| 20260506011104 | 65 | 226 | 9.0 | 20.0 | 0.00 | 0.00 | 0.00 | 66 | 1009.3 |
| 20260506010604 | 64 | 217 | 12.0 | 22.0 | 0.00 | 0.00 | 0.00 | 66 | 1009.2 |
| 20260506010103 | 64 | 230 | 12.0 | 20.0 | 0.00 | 0.00 | 0.00 | 66 | 1008.7 |
| 20260506005604 | 64 | 210 | 9.0 | 20.0 | 0.00 | 0.00 | 0.00 | 66 | 1008.7 |
| 20260506005103 | 65 | 217 | 12.0 | 32.0 | 0.00 | 0.00 | 0.00 | 65 | 1008.7 |
| 20260506004103 | 65 | 207 | 10.0 | 21.0 | 0.00 | 0.00 | 0.00 | 65 | 1008.7 |
| 20260506003104 | 65 | 215 | 7.0 | 18.0 | 0.00 | 0.00 | 0.00 | 65 | 1008.4 |
| 20260506002603 | 65 | 224 | 13.0 | 21.0 | 0.00 | 0.00 | 0.00 | 64 | 1008.4 |
| 20260506002104 | 65 | 216 | 12.0 | 22.0 | 0.00 | 0.00 | 0.00 | 64 | 1008.4 |
| 20260506001604 | 65 | 226 | 12.0 | 21.0 | 0.00 | 0.00 | 0.00 | 64 | 1008.4 |
| 20260506001103 | 65 | 212 | 9.0 | 21.0 | 0.00 | 0.00 | 0.00 | 64 | 1008.4 |
| 20260506000603 | 65 | 218 | 13.0 | 24.0 | 0.00 | 0.00 | 0.00 | 63 | 1008.4 |
| 20260506000103 | 65 | 213 | 12.0 | 29.0 | 0.00 | 0.00 | 0.00 | 63 | 1008.1 |
| 20260505235603 | 65 | 207 | 10.0 | 18.0 | 0.00 | 0.00 | 0.00 | 63 | 1008.1 |
| 20260505235103 | 65 | 214 | 11.0 | 26.0 | 0.00 | 0.00 | 0.00 | 62 | 1008.1 |
| 20260505234604 | 66 | 221 | 8.0 | 21.0 | 0.00 | 0.00 | 0.00 | 62 | 1008.1 |
| 20260505234103 | 66 | 216 | 11.0 | 22.0 | 0.00 | 0.00 | 0.00 | 62 | 1008.0 |
| 20260505233103 | 66 | 208 | 7.0 | 26.0 | 0.00 | 0.00 | 0.00 | 61 | 1008.0 |
| 20260505232603 | 66 | 218 | 9.0 | 21.0 | 0.00 | 0.00 | 0.00 | 60 | 1007.7 |
| 20260505232104 | 67 | 228 | 12.0 | 18.0 | 0.00 | 0.00 | 0.00 | 60 | 1007.7 |
| 20260505231603 | 67 | 221 | 10.0 | 21.0 | 0.00 | 0.00 | 0.00 | 60 | 1007.7 |
| 20260505231104 | 67 | 231 | 10.0 | 23.0 | 0.00 | 0.00 | 0.00 | 59 | 1007.7 |
| 20260505230603 | 67 | 225 | 11.0 | 26.0 | 0.00 | 0.00 | 0.00 | 59 | 1007.9 |
| 20260505225103 | 68 | 219 | 13.0 | 24.0 | 0.00 | 0.00 | 0.00 | 57 | 1007.9 |
| 20260505224604 | 68 | 214 | 12.0 | 29.0 | 0.00 | 0.00 | 0.00 | 58 | 1007.9 |
| 20260505224103 | 68 | 226 | 12.0 | 23.0 | 0.00 | 0.00 | 0.00 | 58 | 1007.8 |
| 20260505223603 | 68 | 227 | 13.0 | 26.0 | 0.00 | 0.00 | 0.00 | 57 | 1007.8 |
| 20260505223104 | 68 | 210 | 17.0 | 28.0 | 0.00 | 0.00 | 0.00 | 57 | 1007.8 |
| 20260505222604 | 69 | 210 | 16.0 | 43.0 | 0.00 | 0.00 | 0.00 | 58 | 1007.8 |
| 20260505222103 | 69 | 221 | 9.0 | 18.0 | 0.00 | 0.00 | 0.00 | 58 | 1007.8 |
| 20260505220604 | 69 | 213 | 8.0 | 20.0 | 0.00 | 0.00 | 0.00 | 58 | 1007.6 |
| 20260505215603 | 69 | 209 | 9.0 | 22.0 | 0.00 | 0.00 | 0.00 | 58 | 1007.6 |
| 20260505215104 | 70 | 201 | 10.0 | 20.0 | 0.00 | 0.00 | 0.00 | 57 | 1007.6 |
| 20260505214603 | 70 | 204 | 9.0 | 16.0 | 0.00 | 0.00 | 0.00 | 57 | 1007.6 |
| 20260505214103 | 70 | 204 | 10.0 | 20.0 | 0.00 | 0.00 | 0.00 | 57 | 1007.6 |
| 20260505213603 | 70 | 215 | 9.0 | 20.0 | 0.00 | 0.00 | 0.00 | 56 | 1007.5 |
| 20260505213104 | 70 | 217 | 6.0 | 20.0 | 0.00 | 0.00 | 0.00 | 56 | 1007.5 |
| 20260505212104 | 71 | 216 | 11.0 | 24.0 | 0.00 | 0.00 | 0.00 | 56 | 1007.1 |
| 20260505211603 | 71 | 207 | 13.0 | 25.0 | 0.00 | 0.00 | 0.00 | 56 | 1007.1 |
| 20260505211104 | 71 | 203 | 12.0 | 23.0 | 0.00 | 0.00 | 0.00 | 56 | 1007.2 |
| 20260505210103 | 71 | 217 | 7.0 | 16.0 | 0.00 | 0.00 | 0.00 | 58 | 1007.2 |
| 20260505205103 | 72 | 204 | 7.0 | 13.0 | 0.00 | 0.00 | 0.00 | 57 | 1007.3 |
| 20260505204603 | 72 | 205 | 7.0 | 16.0 | 0.00 | 0.00 | 0.00 | 57 | 1007.3 |
| 20260505204104 | 72 | 208 | 6.0 | 13.0 | 0.00 | 0.00 | 0.00 | 55 | 1007.3 |
| 20260505203603 | 73 | 208 | 7.0 | 16.0 | 0.00 | 0.00 | 0.00 | 56 | 1007.3 |
| 20260505203103 | 73 | 206 | 9.0 | 14.0 | 0.00 | 0.00 | 0.00 | 56 | 1007.3 |
| 20260505202104 | 73 | 210 | 12.0 | 21.0 | 0.00 | 0.00 | 0.00 | 53 | 1007.5 |
| 20260505201603 | 74 | 206 | 6.0 | 15.0 | 0.00 | 0.00 | 0.00 | 54 | 1007.5 |
| 20260505200604 | 74 | 193 | 5.0 | 12.0 | 0.00 | 0.00 | 0.00 | 55 | 1007.5 |
| 20260505195604 | 74 | 199 | 7.0 | 16.0 | 0.00 | 0.00 | 0.00 | 54 | 1007.6 |
| 20260505195103 | 74 | 186 | 6.0 | 14.0 | 0.00 | 0.00 | 0.00 | 54 | 1007.6 |
| 20260505194603 | 74 | 224 | 9.0 | 21.0 | 0.00 | 0.00 | 0.00 | 55 | 1008.4 |
| 20260505193604 | 74 | 224 | 9.0 | 20.0 | 0.00 | 0.00 | 0.00 | 54 | 1008.4 |
| 20260505193103 | 74 | 193 | 6.0 | 12.0 | 0.00 | 0.00 | 0.00 | 55 | 1008.4 |
| 20260505192603 | 74 | 198 | 5.0 | 14.0 | 0.00 | 0.00 | 0.00 | 54 | 1008.4 |
| 20260505192103 | 75 | 200 | 9.0 | 18.0 | 0.00 | 0.00 | 0.00 | 54 | 1008.4 |
| 20260505191104 | 75 | 216 | 12.0 | 24.0 | 0.00 | 0.00 | 0.00 | 52 | 1008.6 |
| 20260505190603 | 76 | 202 | 5.0 | 14.0 | 0.00 | 0.00 | 0.00 | 53 | 1008.6 |
| 20260505185604 | 75 | 195 | 3.0 | 12.0 | 0.00 | 0.00 | 0.00 | 55 | 1008.7 |
| 20260505185103 | 75 | 200 | 6.0 | 16.0 | 0.00 | 0.00 | 0.00 | 54 | 1008.7 |
| 20260505184103 | 75 | 196 | 6.0 | 14.0 | 0.00 | 0.00 | 0.00 | 56 | 1008.8 |
| 20260505183604 | 74 | 200 | 8.0 | 20.0 | 0.00 | 0.00 | 0.00 | 56 | 1008.6 |
| 20260505182603 | 74 | 199 | 7.0 | 12.0 | 0.00 | 0.00 | 0.00 | 55 | 1008.6 |
| 20260505181604 | 75 | 197 | 10.0 | 20.0 | 0.00 | 0.00 | 0.00 | 55 | 1009.0 |
| 20260505181103 | 76 | 182 | 6.0 | 15.0 | 0.00 | 0.00 | 0.00 | 53 | 1009.0 |
| 20260505180604 | 75 | 218 | 5.0 | 17.0 | 0.00 | 0.00 | 0.00 | 59 | 1009.0 |
| 20260505180104 | 74 | 184 | 7.0 | 18.0 | 0.00 | 0.00 | 0.00 | 55 | 1009.0 |
| 20260505175604 | 75 | 213 | 7.0 | 15.0 | 0.00 | 0.00 | 0.00 | 55 | 1009.0 |
| 20260505175103 | 76 | 195 | 9.0 | 20.0 | 0.00 | 0.00 | 0.00 | 54 | 1009.0 |
| 20260505174603 | 76 | 187 | 6.0 | 13.0 | 0.00 | 0.00 | 0.00 | 54 | 1009.0 |
| 20260505174104 | 76 | 226 | 3.0 | 15.0 | 0.00 | 0.00 | 0.00 | 55 | 1009.0 |
| 20260505173604 | 76 | 215 | 8.0 | 14.0 | 0.00 | 0.00 | 0.00 | 56 | 1009.0 |
| 20260505173104 | 76 | 203 | 8.0 | 22.0 | 0.00 | 0.00 | 0.00 | 53 | 1009.0 |
| 20260505172604 | 76 | 203 | 6.0 | 15.0 | 0.00 | 0.00 | 0.00 | 52 | 1009.0 |
| 20260505172103 | 76 | 215 | 5.0 | 10.0 | 0.00 | 0.00 | 0.00 | 55 | 1009.1 |
| 20260505171604 | 76 | 209 | 7.0 | 13.0 | 0.00 | 0.00 | 0.00 | 55 | 1009.4 |
| 20260505170603 | 77 | 203 | 5.0 | 17.0 | 0.00 | 0.00 | 0.00 | 56 | 1009.4 |
| 20260505170104 | 77 | 224 | 6.0 | 14.0 | 0.00 | 0.00 | 0.00 | 52 | 1009.4 |
| 20260505165603 | 77 | 205 | 3.0 | 12.0 | 0.00 | 0.00 | 0.00 | 57 | 1009.4 |
| 20260505165104 | 76 | 221 | 6.0 | 13.0 | 0.00 | 0.00 | 0.00 | 57 | 1009.4 |
| 20260505164603 | 77 | 187 | 4.0 | 14.0 | 0.00 | 0.00 | 0.00 | 54 | 1009.5 |
| 20260505164103 | 77 | 209 | 5.0 | 12.0 | 0.00 | 0.00 | 0.00 | 55 | 1009.5 |
| 20260505163604 | 76 | 221 | 3.0 | 12.0 | 0.00 | 0.00 | 0.00 | 57 | 1009.5 |
| 20260505163104 | 76 | 206 | 5.0 | 12.0 | 0.00 | 0.00 | 0.00 | 56 | 1009.5 |
| 20260505162103 | 77 | 220 | 3.0 | 16.0 | 0.00 | 0.00 | 0.00 | 57 | 1009.5 |
| 20260505161603 | 77 | 214 | 6.0 | 16.0 | 0.00 | 0.00 | 0.00 | 57 | 1009.5 |
| 20260505160603 | 78 | 218 | 6.0 | 14.0 | 0.00 | 0.00 | 0.00 | 51 | 1009.9 |
| 20260505152603 | 75 | 207 | 6.0 | 12.0 | 0.00 | 0.00 | 0.00 | 53 | 1010.2 |
| 20260505152103 | 75 | 197 | 5.0 | 10.0 | 0.00 | 0.00 | 0.00 | 56 | 1010.2 |
| 20260505151604 | 74 | 207 | 5.0 | 9.0 | 0.00 | 0.00 | 0.00 | 56 | 1010.5 |
| 20260505151104 | 74 | 214 | 9.0 | 14.0 | 0.00 | 0.00 | 0.00 | 56 | 1010.5 |
| 20260505150603 | 74 | 218 | 7.0 | 18.0 | 0.00 | 0.00 | 0.00 | 54 | 1010.5 |
| 20260505130103 | 68 | 215 | 3.0 | 9.0 | 0.00 | 0.00 | 0.00 | 66 | 1010.2 |
| 20260505124603 | 66 | 226 | 4.0 | 12.0 | 0.00 | 0.00 | 0.00 | 70 | 1010.1 |
| 20260505124104 | 65 | 241 | 3.0 | 9.0 | 0.00 | 0.00 | 0.00 | 72 | 1010.1 |
| 20260505123603 | 64 | 225 | 5.0 | 9.0 | 0.00 | 0.00 | 0.00 | 73 | 1010.1 |
| 20260505122103 | 61 | 224 | 4.0 | 12.0 | 0.00 | 0.00 | 0.00 | 78 | 1010.1 |
| 20260505121604 | 61 | 239 | 2.0 | 8.0 | 0.00 | 0.00 | 0.00 | 79 | 1010.1 |
| 20260505121104 | 60 | 220 | 2.0 | 8.0 | 0.00 | 0.00 | 0.00 | 80 | 1010.2 |
| 20260505120603 | 60 | 217 | 3.0 | 9.0 | 0.00 | 0.00 | 0.00 | 81 | 1010.2 |
| 20260505120103 | 59 | 199 | 2.0 | 7.0 | 0.00 | 0.00 | 0.00 | 82 | 1010.2 |
| 20260505115603 | 59 | 207 | 3.0 | 7.0 | 0.00 | 0.00 | 0.00 | 84 | 1010.2 |
| 20260505115103 | 58 | 219 | 2.0 | 7.0 | 0.00 | 0.00 | 0.00 | 84 | 1010.2 |
| 20260505114604 | 58 | 215 | 2.0 | 6.0 | 0.00 | 0.00 | 0.00 | 84 | 1010.4 |
| 20260505113603 | 57 | 232 | 2.0 | 5.0 | 0.00 | 0.00 | 0.00 | 85 | 1010.4 |
| 20260505113103 | 57 | 210 | 5.0 | 10.0 | 0.00 | 0.00 | 0.00 | 85 | 1010.4 |
| 20260505112603 | 56 | 250 | 5.0 | 12.0 | 0.00 | 0.00 | 0.00 | 86 | 1010.4 |
| 20260505111604 | 55 | 230 | 3.0 | 5.0 | 0.00 | 0.00 | 0.00 | 86 | 1010.3 |
| 20260505111103 | 55 | 225 | 3.0 | 6.0 | 0.00 | 0.00 | 0.00 | 86 | 1010.3 |
| 20260505110603 | 55 | 223 | 3.0 | 7.0 | 0.00 | 0.00 | 0.00 | 85 | 1010.2 |
| 20260505102103 | 54 | 231 | 3.0 | 7.0 | 0.00 | 0.00 | 0.00 | 85 | 1009.5 |
| 20260505101104 | 54 | 218 | 3.0 | 6.0 | 0.00 | 0.00 | 0.00 | 85 | 1009.3 |
| 20260505100605 | 54 | 228 | 5.0 | 8.0 | 0.00 | 0.00 | 0.00 | 85 | 1009.2 |
| 20260505095603 | 53 | 214 | 4.0 | 6.0 | 0.00 | 0.00 | 0.00 | 84 | 1009.3 |
| 20260505095103 | 54 | 231 | 2.0 | 6.0 | 0.00 | 0.00 | 0.00 | 84 | 1009.3 |
| 20260505094604 | 54 | 220 | 4.0 | 7.0 | 0.00 | 0.00 | 0.00 | 84 | 1009.3 |
| 20260505094104 | 54 | 219 | 3.0 | 8.0 | 0.00 | 0.00 | 0.00 | 84 | 1009.3 |
| 20260505093603 | 54 | 220 | 3.0 | 7.0 | 0.00 | 0.00 | 0.00 | 84 | 1009.4 |
| 20260505093103 | 54 | 226 | 5.0 | 9.0 | 0.00 | 0.00 | 0.00 | 84 | 1009.4 |
| 20260505092104 | 54 | 227 | 3.0 | 7.0 | 0.00 | 0.00 | 0.00 | 83 | 1009.5 |
| 20260505091604 | 54 | 214 | 5.0 | 7.0 | 0.00 | 0.00 | 0.00 | 83 | 1009.4 |